Regional Weather Roundup
Issued by NWS

Home | Current Version | Previous Version | Graphics & Text | Print | Product List | Glossary On
Versions: 1 2 3 4 5 6 7 8 9 10 11 12 13 14 15 16 17 18 19 20 21 22 23 24 25 26 27 28 29 30 31 32 33 34 35 36 37 38 39 40 41 42 43 44 45 46 47 48 49 50
000
ASUS45 KBOI 281710
RWRID
WEATHER ROUNDUP FOR IDAHO
NATIONAL WEATHER SERVICE BOISE ID
1000 AM MST SUN DEC 28 2014

NOTE: "FAIR" INDICATES FEW OR NO CLOUDS BELOW 12000 FEET
WITH NO SIGNIFICANT WEATHER AND/OR OBSTRUCTIONS TO VISIBILITY

IDZ012-014-281800-
SOUTHWEST IDAHO


CITY           SKY/WX    TMP DP  RH WIND       PRES   REMARKS
BOISE          CLOUDY    29  29 100 CALM      30.11R FOG
CALDWELL       CLOUDY    27  21  80 CALM      30.14S VSB<1/4
MOUNTAIN HOME  CLOUDY    30  29  96 SW5       30.10S WCI  25
$$

IDZ016-017-281800-
SOUTHCENTRAL IDAHO


CITY           SKY/WX    TMP DP  RH WIND       PRES   REMARKS
BURLEY         PTSUNNY   30  26  85 W14G25    30.02R WCI  19
JEROME         CLOUDY    28  27  96 SW16      30.06R WCI  16
TWIN FALLS     PTSUNNY   31  25  78 SW14      30.06R WCI  21
$$

IDZ019>023-281800-
SOUTHEAST IDAHO


CITY           SKY/WX    TMP DP  RH WIND       PRES   REMARKS
IDAHO FALLS    LGT SNOW  20  17  88 NW6       29.97S VSB 1   WCI  12
POCATELLO      PTSUNNY   28  25  88 SW20      30.00R WCI  15
REXBURG        SNOW      22  20  92 NE3       29.97R VSB 1/4
$$

IDZ006-010-011-018-031-032-281800-
CENTRAL IDAHO MOUNTAINS


CITY           SKY/WX    TMP DP  RH WIND       PRES   REMARKS
MCCALL         LGT SNOW  21  20  96 CALM      29.97S FOG
HAILEY         MOSUNNY   16  10  79 W12       29.98R WCI   3
STANLEY          N/A     18  13  80 CALM      29.95R
SALMON         PTSUNNY   18  16  93 CALM      29.99R
CHALLIS        MOSUNNY   12   9  87 CALM      29.96R
$$

IDZ002-004-006-007-026-281800-
NORTHERN IDAHO


CITY           SKY/WX    TMP DP  RH WIND       PRES   REMARKS
LEWISTON       CLOUDY    38  32  79 CALM      30.06R
LOWELL         NOT AVBL
COEUR D`ALENE  CLOUDY    30  27  86 W8        30.01R WCI  23
MULLAN PASS    FOG       23  19  85 NW6       29.84R VSB 1/4 WCI  16
$$


USA.gov is the U.S. government's official web portal to all federal, state and local government web resources and services.